Location: Milton Keynes
(52.0316°N, 0.7531°W)
Time: 21:54:24
(UTC+01:00)

Envisat - Visible Passes

Search period start: 25 September 2020 00:00
Search period end: 05 October 2020 00:00
Orbit: 764 x 766 km, 98.1° (Epoch: 25 September)

Date Brightness Start Highest point End Pass type
(mag) Time Alt. Az. Time Alt. Az. Time Alt. Az.
25 Sep 5.9 06:09:23 10° NE 06:13:23 23° E 06:17:22 10° SE visible
26 Sep 6.5 05:34:23 10° ENE 05:36:03 11° E 05:37:43 10° ESE visible
27 Sep 6.2 19:35:39 10° SW 19:39:01 18° W 19:42:26 10° NW visible
28 Sep 6.1 05:58:19 10° NE 06:01:53 19° E 06:05:26 10° SE visible
29 Sep 6.8 20:03:44 10° W 20:04:52 11° W 20:06:00 10° WNW visible
30 Sep 5.4 06:23:10 10° NNE 06:27:36 29° E 06:32:02 10° SSE visible
30 Sep 6.0 19:23:40 10° SW 19:27:31 21° W 19:31:24 10° NW visible
01 Oct 6.2 05:47:23 10° NE 05:50:22 15° E 05:53:19 10° ESE visible
02 Oct 6.4 19:50:53 10° WSW 19:53:19 13° W 19:55:46 10° NW visible
03 Oct 5.7 06:12:00 10° NE 06:16:08 24° E 06:20:14 10° SE visible
03 Oct 5.6 19:11:49 10° SSW 19:16:02 26° W 19:20:17 10° NW visible
04 Oct 6.4 05:36:42 10° ENE 05:38:50 12° E 05:40:57 10° ESE visible
